#timestamp,LO_Frequency,Hit,StdDev 
1595852615.4,286046989.4,P
1595852635.3,286046987.4,P
1595852655.1,286046987.2,P
1595852675.8,286046985.4,Y
1595852695.7,286046998.6,P
1595852715.5,286046998.3,N
1595852735.4,286046999.0,N
1595852755.2,286046999.1,N
1595852775.0,286046999.3,N
1595852775.9,286046999.3,N
1595852795.8,286046996.6,N
1595852815.6,286046996.9,N
1595852835.4,286046997.4,N
1595852855.3,286046997.4,N
1595852875.1,286046998.0,N
1595852895.9,286046997.5,N
1595852915.7,286046997.6,N
1595852935.5,286046994.9,N
1595852955.4,286046997.2,N
1595852975.2,286046997.6,N
1595852995.0,286046995.4,N
1595852995.9,286046995.4,N
1595853015.8,286046993.7,N
1595853035.6,286046995.5,N
1595853055.5,286046995.2,N
1595853075.3,286046995.5,N
1595853095.1,286046995.4,N
1595853115.9,286046995.4,N
1595853135.7,286046995.6,N
1595853155.5,286046995.5,N
1595853175.4,286046995.7,N
1595853195.2,286046995.5,N
1595853215.1,286046995.5,N
1595853216.0,286046995.5,N
1595853235.8,286046996.1,N
1595853255.6,286046995.2,Y
1595853275.5,286046998.3,P
1595853295.3,286046999.5,N
1595853315.1,286046999.4,N
1595853335.9,286046999.0,N
1595853355.7,286046997.0,N
1595853375.6,286046996.8,N
1595853395.4,286046997.2,N
1595853415.2,286046997.5,N
1595853435.1,286046997.6,N
1595853436.0,286046997.6,N
1595853455.8,286046994.9,Y
1595853475.7,286046999.4,P
1595853495.5,286046999.0,N
1595853515.3,286046999.5,N
1595853535.2,286046999.3,N
1595853555.0,286046999.5,N
1595853555.9,286046999.5,N
1595853575.8,286046996.7,Y
1595853595.6,286046998.8,P
1595853615.4,286046999.5,P
1595853635.3,286046996.9,P
1595853655.1,286046996.8,Y
1595853675.9,286046998.8,P
1595853695.7,286046998.9,P
1595853715.5,286046998.5,P
1595853735.4,286046998.5,Y
1595853755.2,286047000.4,P
1595853775.0,286047000.5,N
1595853776.0,286047000.5,N
1595853795.8,286047000.4,N
1595853815.6,286047000.5,N
1595853835.5,286047000.9,N
1595853855.3,286047000.4,N
1595853875.1,286047000.7,N
1595853895.9,286047000.5,N
1595853915.7,286047001.0,N
1595853935.6,286047000.9,N
1595853955.4,286046998.4,N
1595853975.2,286047001.1,N
1595853995.1,286046998.9,N
1595853996.0,286046998.9,N
1595854015.8,286046996.5,Y
1595854035.6,286046999.1,P
1595854055.5,286046999.0,N
1595854075.3,286046996.5,P
1595854095.2,286046999.5,N
1595854115.9,286046996.9,N
1595854135.7,286046999.3,N
1595854155.6,286047011.9,Y
1595854175.4,286046998.1,P
1595854195.2,286046998.1,P
1595854215.1,286047001.2,P
1595854216.0,286047001.2,N
1595854235.8,286047000.8,N
1595854255.7,286047001.1,N
1595854275.5,286046998.5,N
1595854295.3,286046998.6,N
1595854315.2,286046998.1,N
1595854335.0,286047001.2,N
1595854335.9,286047001.2,N
1595854355.8,286046998.5,N
1595854375.6,286046998.5,N
1595854395.4,286046998.7,N
1595854415.3,286046998.5,N
1595854435.1,286046998.4,N
1595854455.8,286046999.3,N
1595854475.7,286046996.6,N
1595854495.5,286046999.5,N
1595854515.4,286046999.0,N
1595854535.2,286046998.7,N
1595854555.0,286046999.4,N
1595854555.9,286046999.4,N
1595854575.8,286046998.6,N
1595854595.6,286046999.4,N
1595854615.4,286046999.3,N
1595854665.3,286046996.7,E
1595854675.2,286047001.2,N
1595854695.1,286047000.1,P
1595854696.0,286047000.1,N
1595854715.8,286047002.3,Y
1595854735.7,286047000.8,P
1595854755.5,286047001.0,P
1595854775.3,286047000.6,N
1595854795.2,286047000.6,N
